KD8UYA Weather Reports


Display with metric or nautical units.
time (UTC)temp
F
wind
direction
speed
MPH
gust
MPH
rain 1hr
in
rain 24hr
in
rain mn
in
humidity
%
barometer
mb
20260902123012 76 281 1.0 5.0 0.00 0.00 0.00 91 1013.6
20260902121510 75 360 0.0 4.0 0.00 0.00 0.00 93 1013.5
20260902120008 74 257 0.0 0.0 0.00 0.00 0.00 94 1013.3
20260902114512 74 268 0.0 0.0 0.00 0.00 0.00 95 1013.1
20260902113006 74 268 0.0 0.0 0.00 0.00 0.00 95 1013.0
20260902111506 74 269 0.0 0.0 0.00 0.00 0.00 95 1012.9
20260902110012 74 270 0.0 3.0 0.00 0.00 0.00 95 1012.8
20260902104507 74 267 0.0 0.0 0.00 0.00 0.00 95 1012.8
20260902103005 74 267 0.0 2.0 0.00 0.00 0.00 95 1012.8
20260902101504 74 267 0.0 3.0 0.00 0.00 0.00 95 1012.8
20260902100005 74 276 0.0 2.0 0.00 0.00 0.00 95 1012.5
20260902094503 74 290 1.0 3.0 0.00 0.00 0.00 95 1012.7
20260902093002 74 256 0.0 0.0 0.00 0.00 0.00 95 1012.8
20260902091502 74 256 0.0 0.0 0.00 0.00 0.00 95 1012.9
20260902090002 74 256 0.0 0.0 0.00 0.00 0.00 95 1013.0
20260902084604 75 256 0.0 0.0 0.00 0.00 0.00 94 1012.9
20260902083103 75 256 0.0 0.0 0.00 0.00 0.00 94 1012.8
20260902081604 75 267 0.0 0.0 0.00 0.00 0.00 94 1012.8
20260902080108 75 257 0.0 3.0 0.00 0.00 0.00 95 1012.8
20260902074558 74 263 0.0 2.0 0.00 0.00 0.00 95 1012.7
20260902073059 74 260 0.0 0.0 0.00 0.00 0.00 95 1012.7
20260902071559 73 259 0.0 0.0 0.00 0.00 0.00 95 1012.8
20260902064604 73 259 0.0 0.0 0.00 0.00 0.00 94 1013.0
20260902063055 73 259 0.0 0.0 0.00 0.00 0.00 93 1013.1
20260902061607 73 259 0.0 0.0 0.00 0.00 0.00 93 1013.1
20260902060056 73 259 0.0 0.0 0.00 0.00 0.00 92 1013.1
20260902054559 73 259 0.0 0.0 0.00 0.00 0.00 92 1013.0
20260902053052 73 259 0.0 2.0 0.00 0.00 0.00 93 1013.0
20260902051555 73 260 0.0 2.0 0.00 0.00 0.00 93 1013.1
20260902050056 73 256 0.0 0.0 0.00 0.00 0.00 92 1013.0
20260902044546 74 256 0.0 0.0 0.00 0.00 0.00 92 1012.9
20260902043044 74 256 0.0 0.0 0.00 0.00 0.00 91 1012.7
20260902041553 75 256 0.0 0.0 0.00 0.00 0.00 90 1012.7
20260902040039 76 256 0.0 0.0 0.00 0.00 0.00 89 1012.5
20260902034538 77 256 0.0 0.0 0.00 0.00 0.00 88 1012.7
20260902033042 77 237 1.0 5.0 0.00 0.00 0.00 88 1012.8
20260902031537 77 237 0.0 4.0 0.00 0.00 0.00 89 1012.7
20260902030036 77 251 2.0 6.0 0.00 0.00 0.00 90 1012.7
20260902024535 76 270 1.0 5.0 0.00 0.00 0.00 91 1012.6
20260902023035 75 266 0.0 3.0 0.00 0.00 0.00 91 1012.6
20260902021538 75 269 0.0 0.0 0.00 0.00 0.00 90 1012.4
20260902020034 75 269 0.0 2.0 0.00 0.00 0.00 89 1012.3
20260902014538 76 269 0.0 0.0 0.00 0.00 0.00 87 1012.4
20260902013132 76 269 0.0 0.0 0.00 0.00 0.00 86 1012.3
20260902011537 77 269 0.0 0.0 0.00 0.00 0.00 84 1012.1
20260902010051 78 269 0.0 0.0 0.00 0.00 0.00 81 1011.9
20260902004538 79 269 0.0 2.0 0.00 0.00 0.00 81 1011.9
20260902003029 80 270 0.0 3.0 0.00 0.00 0.00 79 1011.8
20260902001529 80 262 2.0 6.0 0.00 0.00 0.00 79 1011.8
20260902000045 81 252 1.0 7.0 0.00 0.00 0.00 78 1011.8
20260901234554 81 293 4.0 11.0 0.00 0.00 0.00 77 1012.1
20260901233026 82 360 4.0 11.0 0.00 0.00 0.00 77 1012.1
20260901231540 82 331 3.0 10.0 0.00 0.00 0.00 79 1012.3
20260901230027 82 261 3.0 7.0 0.00 0.00 0.00 78 1012.5
20260901224531 83 275 3.0 11.0 0.00 0.00 0.00 77 1012.5
20260901223034 83 271 3.0 11.0 0.00 0.00 0.00 75 1012.7
20260901221529 84 244 4.0 14.0 0.00 0.00 0.00 73 1012.7
20260901220024 85 242 4.0 13.0 0.00 0.00 0.00 72 1012.5
20260901214522 86 319 6.0 10.0 0.00 0.00 0.00 72 1012.6
20260901213021 86 282 3.0 13.0 0.00 0.00 0.00 72 1012.4
20260901211521 86 277 5.0 12.0 0.00 0.00 0.00 72 1012.5
20260901210021 87 250 4.0 11.0 0.00 0.00 0.00 73 1012.5
20260901204519 86 273 2.0 7.0 0.00 0.00 0.00 77 1012.3
20260901203024 85 256 4.0 12.0 0.00 0.00 0.00 78 1012.5
20260901201518 85 272 3.0 12.0 0.00 0.00 0.00 77 1012.7
20260901200032 86 253 3.0 12.0 0.00 0.00 0.00 76 1012.6
20260901194516 86 221 4.0 12.0 0.00 0.00 0.00 73 1012.4
20260901193015 86 301 4.0 11.0 0.00 0.00 0.00 72 1012.4
20260901191516 86 238 5.0 14.0 0.00 0.00 0.00 73 1012.3
20260901190022 86 310 3.0 7.0 0.00 0.00 0.00 73 1012.1
20260901184514 85 255 3.0 9.0 0.00 0.00 0.00 72 1012.0
20260901183113 84 275 5.0 10.0 0.00 0.00 0.00 74 1012.3
20260901181507 84 298 2.0 11.0 0.00 0.00 0.00 75 1012.5
20260901180007 84 221 6.0 13.0 0.00 0.00 0.00 77 1012.6
20260901174505 84 205 5.0 11.0 0.00 0.00 0.00 76 1012.7
20260901173004 84 270 4.0 13.0 0.00 0.00 0.00 77 1012.8
20260901171504 84 219 5.0 13.0 0.00 0.00 0.00 76 1013.0
20260901170004 84 260 6.0 15.0 0.00 0.00 0.00 75 1013.1
20260901164634 85 246 7.0 16.0 0.00 0.00 0.00 75 1013.2
20260901163101 85 240 5.0 10.0 0.00 0.00 0.00 75 1013.3
20260901163001 85 294 5.0 10.0 0.00 0.00 0.00 75 1013.4
20260901161558 84 296 7.0 13.0 0.00 0.00 0.00 76 1013.2
20260901160059 84 225 5.0 11.0 0.00 0.00 0.00 76 1013.1
20260901154553 83 315 4.0 12.0 0.00 0.00 0.00 77 1013.1
20260901153052 83 238 8.0 12.0 0.00 0.00 0.00 77 1013.1
20260901151552 83 287 8.0 16.0 0.00 0.00 0.00 77 1013.4
20260901150048 82 295 6.0 11.0 0.00 0.00 0.00 78 1013.2
20260901144546 82 278 4.0 11.0 0.00 0.00 0.00 78 1013.1
20260901143045 81 223 4.0 12.0 0.00 0.00 0.00 79 1013.3
20260901141552 81 309 4.0 13.0 0.00 0.00 0.00 80 1013.2
20260901140039 81 284 3.0 12.0 0.00 0.00 0.00 81 1013.0
20260901134538 80 274 3.0 9.0 0.00 0.00 0.00 82 1012.9
20260901133041 79 281 5.0 9.0 0.00 0.00 0.00 83 1012.9
20260901131534 78 303 1.0 6.0 0.00 0.00 0.00 85 1013.1
20260901130026 77 279 2.0 7.0 0.00 0.00 0.00 86 1013.2
20260901124525 76 249 1.0 8.0 0.00 0.00 0.00 87 1013.2